User: anonymous   Login
Location: Caltech
(34.1382°N, 118.1253°W)
Time: 15:27:25
(UTC-07:00)
Language:

Cosmos 2084 - Orbit

View from above orbital plane
View from above orbital plane
View from above satellite
View from above satellite

Ground track
Ground track

The orbit data is extracted from the following two-line orbital elements,

1 20663U 90055A   15085.20598693  .00003167  00000-0  33037-3 0  9993
2 20663 062.7960 062.3453 0067054 359.2092 000.8883 14.90195421338438
Epoch (UTC): 26 March 2015 04:56:37
Eccentricity: 0.0067054
inclination: 62.7960°
perigee height: 550 km
apogee height: 644 km
right ascension of ascending node: 62.3453°
argument of perigee: 359.2092°
revolutions per day: 14.90195421
mean anomaly at epoch: 0.8883°
orbit number at epoch: 33843

The dashed part of the orbit path shows where the satellite is in the earth's shadow,  

DLR